Weather History for Antigo, WI

Change the Weather History Date:

Sunday, December 23, 2012

  Actual Average Record
Temperature  
Mean Temperature 16 °F -  
Max Temperature 20 °F 23 °F 40 °F (1957)
Min Temperature 12 °F 7 °F -32 °F (1983)
Degree Days  
Heating Degree Days 49    
Moisture  
Dew Point 11 °F    
Average Humidity 77    
Maximum Humidity 91    
Minimum Humidity 62    
Precipitation  
Precipitation 0.00 in - - ()
Sea Level Pressure  
Sea Level Pressure 29.96 in    
Wind  
Wind Speed 10 mph (NNW)    
Max Wind Speed 24 mph    
Max Gust Speed 28 mph    
Visibility 10 miles    
Events Snow    
Averages and records for this station are not official NWS values.
T = Trace of Precipitation, MM = Missing Value Source: NWS Daily Summary

Daily Weather History Graph

Daily Weather History Graph

Search for Another Location

Airport:

Trip Planner

Search our weather history database for the weather conditions in past years. The results will help you decide how hot, cold, wet, or windy it might be!

Date:

Astronomy

Dec. 23, 2012 Rise Set
Actual Time 7:33 AM CST 4:18 PM CST
Civil Twilight 6:59 AM CST 4:52 PM CST
Nautical Twilight 6:21 AM CST 5:29 PM CST
Astronomical Twilight 5:46 AM CST 6:05 PM CST
Moon 1:14 PM CST (12/23) 3:09 AM CST (12/23)
Length of Visible Light 9h 53m
Length of Day
8h 45m
Waxing Gibbous, 82% of the Moon is Illuminated
Dec 23
Waxing Gibbous
Dec 28
Full
Jan 4
Last Quarter
Jan 11
New
Jan 18
First Quarter

Hourly Weather History & Observations

Time (CST) Temp. Windchill Dew Point Humidity Pressure Visibility Wind Dir Wind Speed Gust Speed Precip Events Conditions
12:15 AM 16.3 °F 6.7 °F 12.4 °F 84% 29.87 in 10.0 mi NNW 6.9 mph - N/A   Overcast
12:35 AM 18.3 °F 5.9 °F 15.3 °F 88% 29.88 in 10.0 mi NNW 11.5 mph - N/A   Overcast
12:55 AM 19.0 °F 8.2 °F 16.2 °F 89% 29.88 in 10.0 mi North 9.2 mph - N/A   Overcast
1:15 AM 19.4 °F 7.9 °F 16.7 °F 89% 29.88 in 10.0 mi North 10.4 mph 16.1 mph N/A   Overcast
1:35 AM 19.8 °F 7.1 °F 17.4 °F 91% 29.89 in 10.0 mi North 12.7 mph 18.4 mph N/A   Overcast
1:55 AM 19.9 °F 8.6 °F 17.6 °F 91% 29.90 in 10.0 mi North 10.4 mph - N/A   Overcast
2:15 AM 20.1 °F 5.9 °F 17.6 °F 90% 29.90 in 10.0 mi NNW 16.1 mph 21.9 mph N/A   Overcast
2:35 AM 19.9 °F 3.9 °F 17.4 °F 90% 29.90 in 10.0 mi North 20.7 mph - N/A   Overcast
2:55 AM 20.1 °F 5.9 °F 17.4 °F 89% 29.91 in 10.0 mi North 16.1 mph - N/A   Overcast
3:15 AM 19.9 °F 6.2 °F 17.2 °F 89% 29.91 in 10.0 mi North 15.0 mph - N/A   Overcast
3:35 AM 19.8 °F 7.1 °F 17.1 °F 89% 29.92 in 10.0 mi North 12.7 mph - N/A   Overcast
3:55 AM 19.0 °F 5.0 °F 16.0 °F 88% 29.93 in 10.0 mi North 15.0 mph - N/A   Overcast
4:15 AM 18.3 °F 3.6 °F 15.3 °F 88% 29.93 in 10.0 mi NNW 16.1 mph - N/A   Overcast
4:35 AM 18.5 °F 3.8 °F 15.4 °F 88% 29.93 in 10.0 mi North 16.1 mph 19.6 mph N/A   Overcast
4:55 AM 18.0 °F 0.2 °F 14.0 °F 84% 29.94 in 10.0 mi North 24.2 mph 27.6 mph N/A   Overcast
5:15 AM 17.4 °F 1.5 °F 13.1 °F 83% 29.94 in 10.0 mi North 18.4 mph - N/A   Overcast
5:35 AM 17.6 °F 3.2 °F 13.8 °F 85% 29.95 in 10.0 mi North 15.0 mph 19.6 mph N/A   Overcast
5:55 AM 17.6 °F 2.2 °F 13.8 °F 85% 29.95 in 10.0 mi North 17.3 mph 23.0 mph N/A   Overcast
6:15 AM 18.0 °F 4.8 °F 14.0 °F 84% 29.96 in 10.0 mi North 12.7 mph 21.9 mph N/A   Overcast
6:35 AM 18.0 °F 4.8 °F 14.0 °F 84% 29.96 in 10.0 mi NNW 12.7 mph - N/A   Overcast
6:55 AM 17.6 °F 2.2 °F 13.1 °F 83% 29.96 in 10.0 mi North 17.3 mph 23.0 mph N/A   Overcast
7:15 AM 17.6 °F 4.3 °F 13.1 °F 83% 29.97 in 10.0 mi NNW 12.7 mph - N/A   Overcast
7:35 AM 18.0 °F 5.4 °F 13.1 °F 81% 29.98 in 10.0 mi North 11.5 mph - N/A   Overcast
7:55 AM 18.0 °F 5.4 °F 13.1 °F 81% 29.98 in 10.0 mi NNW 11.5 mph 17.3 mph N/A   Overcast
8:15 AM 18.0 °F 5.4 °F 13.1 °F 81% 29.98 in 10.0 mi NNW 11.5 mph 18.4 mph N/A   Overcast
8:35 AM 17.6 °F 5.0 °F 12.2 °F 79% 29.99 in 10.0 mi NNW 11.5 mph - N/A   Overcast
8:55 AM 17.2 °F 4.5 °F 11.3 °F 78% 29.99 in 10.0 mi NNW 11.5 mph - N/A   Overcast
9:15 AM 16.7 °F 3.2 °F 10.9 °F 78% 29.99 in 10.0 mi NNW 12.7 mph 17.3 mph N/A Snow Light Snow
9:35 AM 15.6 °F 0.6 °F 8.6 °F 74% 29.99 in 10.0 mi NNW 15.0 mph - N/A   Mostly Cloudy
9:55 AM 16.7 °F 4.5 °F 9.5 °F 73% 30.00 in 10.0 mi North 10.4 mph - N/A   Mostly Cloudy
10:15 AM 17.1 °F 5.0 °F 9.3 °F 72% 29.99 in 10.0 mi North 10.4 mph - N/A   Scattered Clouds
10:35 AM 17.4 °F 7.1 °F 9.5 °F 71% 29.99 in 10.0 mi NNW 8.1 mph - N/A   Clear
11:15 AM 18.1 °F 6.3 °F 9.7 °F 70% 29.98 in 10.0 mi NNW 10.4 mph - N/A   Clear
11:35 AM 18.5 °F 7.5 °F 9.0 °F 66% 29.98 in 10.0 mi NNW 9.2 mph - N/A   Clear
11:55 AM 19.0 °F 10.0 °F 9.1 °F 65% 29.98 in 10.0 mi NNW 6.9 mph - N/A   Clear
12:15 PM 19.4 °F 9.5 °F 9.3 °F 65% 29.98 in 10.0 mi North 8.1 mph - N/A   Clear
12:35 PM 20.1 °F 12.3 °F 9.7 °F 64% 29.98 in 10.0 mi NNW 5.8 mph - N/A   Clear
12:55 PM 20.3 °F 10.6 °F 9.3 °F 63% 29.97 in 10.0 mi North 8.1 mph - N/A   Clear
1:15 PM 20.3 °F 12.5 °F 9.1 °F 62% 29.97 in 10.0 mi North 5.8 mph - N/A   Clear
1:35 PM 20.7 °F 15.8 °F 9.3 °F 62% 29.96 in 10.0 mi NNW 3.5 mph - N/A   Clear
1:55 PM 20.3 °F 13.8 °F 9.3 °F 63% 29.96 in 10.0 mi NW 4.6 mph - N/A   Clear
2:15 PM 19.9 °F - 9.3 °F 63% 29.96 in 10.0 mi Calm Calm - N/A   Clear
2:35 PM 20.3 °F - 9.0 °F 62% 29.97 in 10.0 mi Calm Calm - N/A   Clear
2:55 PM 20.8 °F 13.2 °F 9.9 °F 63% 29.97 in 10.0 mi WNW 5.8 mph - N/A   Clear
3:15 PM 20.8 °F 13.2 °F 9.5 °F 62% 29.98 in 10.0 mi WNW 5.8 mph - N/A   Clear
3:35 PM 19.9 °F 11.1 °F 9.7 °F 64% 29.98 in 10.0 mi WNW 6.9 mph - N/A   Clear
3:55 PM 19.4 °F 11.5 °F 9.0 °F 64% 29.98 in 10.0 mi NW 5.8 mph - N/A   Clear
4:15 PM 18.5 °F 10.4 °F 8.8 °F 66% 29.98 in 10.0 mi NW 5.8 mph - N/A   Clear
4:35 PM 17.4 °F 10.4 °F 8.6 °F 68% 29.98 in 10.0 mi NNW 4.6 mph - N/A   Clear
4:55 PM 16.9 °F 8.5 °F 8.8 °F 71% 29.98 in 10.0 mi NNW 5.8 mph - N/A   Clear
5:15 PM 17.1 °F 11.7 °F 8.6 °F 69% 29.98 in 10.0 mi NNW 3.5 mph - N/A   Clear
5:35 PM 16.7 °F 11.2 °F 8.8 °F 71% 29.99 in 10.0 mi NW 3.5 mph - N/A   Clear
5:55 PM 15.6 °F 7.0 °F 8.4 °F 73% 29.98 in 10.0 mi NNW 5.8 mph - N/A   Clear
6:15 PM 14.7 °F 4.8 °F 8.1 °F 75% 29.98 in 10.0 mi North 6.9 mph - N/A   Clear
6:35 PM 14.4 °F 8.6 °F 8.1 °F 76% 29.99 in 10.0 mi NNW 3.5 mph - N/A   Clear
6:55 PM 14.5 °F 7.1 °F 7.9 °F 75% 29.99 in 10.0 mi NNW 4.6 mph - N/A   Clear
7:15 PM 14.7 °F 5.9 °F 8.6 °F 77% 29.99 in 10.0 mi North 5.8 mph - N/A   Clear
7:35 PM 14.0 °F 6.5 °F 8.4 °F 78% 29.99 in 10.0 mi NNW 4.6 mph - N/A   Clear
7:55 PM 13.8 °F 6.2 °F 8.1 °F 78% 29.99 in 10.0 mi NNW 4.6 mph - N/A   Clear
8:15 PM 13.6 °F 4.6 °F 8.1 °F 78% 29.98 in 10.0 mi North 5.8 mph - N/A   Clear
8:55 PM 13.5 °F 7.5 °F 8.4 °F 80% 29.97 in 10.0 mi North 3.5 mph - N/A   Clear
9:15 PM 13.1 °F - 8.2 °F 81% 29.98 in 10.0 mi Calm Calm - N/A   Clear
9:35 PM 12.0 °F - 7.9 °F 83% 29.98 in 10.0 mi Calm Calm - N/A   Clear
9:55 PM 13.1 °F - 8.6 °F 82% 29.98 in 10.0 mi Calm Calm - N/A   Scattered Clouds
10:15 PM 13.6 °F 6.0 °F 9.3 °F 83% 29.96 in 10.0 mi North 4.6 mph - N/A   Mostly Cloudy
10:35 PM 13.6 °F 7.7 °F 9.5 °F 84% 29.97 in 10.0 mi North 3.5 mph - N/A   Mostly Cloudy
10:55 PM 13.5 °F 7.5 °F 9.1 °F 83% 29.97 in 10.0 mi North 3.5 mph - N/A   Clear
11:15 PM 13.6 °F - 9.1 °F 82% 29.97 in 10.0 mi Calm Calm - N/A   Clear
11:35 PM 13.1 °F - 8.6 °F 82% 29.97 in 10.0 mi Calm Calm - N/A   Clear
11:55 PM 13.1 °F - 8.8 °F 83% 29.97 in 10.0 mi Calm Calm - N/A   Clear